Location: Campillo
(40.8621°N, 4.2488°W)
Time: 22:03:26
(UTC+00:00)

Cosmos 1633 Rocket - Pass Details

Date: 21 September 2021
Orbit: 607 x 623 km, 82.5° (Epoch: 28 October)

Event Time Altitude Azimuth Distance (km) Brightness Sun altitude
Rises 02:39:18 0° 15° (NNE) 2,914 7.2 -36.5°
Reaches altitude 10° 02:43:30 10° 54° (NE) 1,999 6.4 -35.9°
Maximum altitude 02:44:32 11° 67° (ENE) 1,949 6.3 -35.7°
Drops below altitude 10° 02:45:35 10° 81° (E) 1,995 6.3 -35.5°
Sets 02:49:44 0° 120° (ESE) 2,890 6.7 -34.9°
